Location: Newark
(47.5833°N, 8.1500°E)
Time: 18:47:30
(UTC+00:00)

Transit 2A - Pass Details

Date: 27 October 2020
Orbit: 595 x 964 km, 66.7° (Epoch: 01 December)

Event Time Altitude Azimuth Distance (km) Brightness Sun altitude
Rises 03:54:58 0° 282° (WNW) 3,647 - -22.3°
Reaches altitude 10° 03:58:45 10° 303° (WNW) 2,680 - -21.7°
Exits shadow 04:01:12 15° 326° (NW) 2,310 8.2 -21.3°
Maximum altitude 04:02:25 16° 339° (NNW) 2,249 8.2 -21.1°
Drops below altitude 10° 04:06:00 10° 16° (NNE) 2,592 8.9 -20.5°
Sets 04:09:34 0° 38° (NE) 3,466 10.0 -19.9°
